Simultaneous Nadir Overpasses (SNOs) Predictions

Prediction of SNOs between METOP-B and TERRA Satellite Orbit:

Table of predicted SNOs for the next 14.0 days since TLE Epoch: 3/15/2013
Index Date (METOP-B) Time (METOP-B) Lat,Lon (METOP-B) SZA (METOP-B ) Date (TERRA) Time (TERRA) Lat,Lon (TERRA) SZA (TERRA ) Distance(km) Time Diff (sec)
1 03/16/2013 03:53:56 81.28, 168.30 85.46 03/16/2013 03:54:10 81.28, 168.36 85.47 1.12 14
2 03/16/2013 04:44:35 -81.29, -23.68 94.47 03/16/2013 04:43:36 -81.30, -23.71 94.50 0.57 59
3 03/18/2013 23:28:18 81.29,-125.00 84.41 03/18/2013 23:28:26 81.29,-124.96 84.43 0.89 8
4 03/19/2013 00:18:58 -81.29, 42.70 95.56 03/19/2013 00:17:53 -81.29, 42.61 95.60 1.55 65
5 03/21/2013 18:12:33 -80.89, 121.75 98.17 03/21/2013 18:13:43 -80.61, 124.36 98.14 56.08 70
6 03/
